Location: Kawakawa
(35.3830°S, 174.0670°E)
Time: 01:46:04
(UTC+13:00)

A-11 Canister half - All Passes

Search period start: 09 December 2019 00:00
Search period end: 19 December 2019 00:00
Orbit: 1515 x 1685 km, 47.2° (Epoch: 08 December)

Date Brightness Start Highest point End Pass type
(mag) Time Alt. Az. Time Alt. Az. Time Alt. Az.
09 Dec - 00:46:57 10° NW 00:56:39 62° NE 01:06:03 10° ESE visible
09 Dec - 02:52:17 10° W 03:01:50 56° SSW 03:11:06 10° SE visible
09 Dec - 04:59:36 10° WSW 05:08:28 40° S 05:17:07 10° ESE visible
09 Dec - 07:05:35 10° SW 07:14:54 62° SSE 07:24:04 10° ENE daylight
09 Dec - 09:10:50 10° WSW 09:19:41 51° NW 09:28:31 10° NNE daylight
09 Dec - 22:25:52 10° NNE 22:30:08 13° ENE 22:34:20 10° E visible
10 Dec - 00:24:06 10° NNW 00:33:45 59° NE 00:43:06 10° ESE visible
10 Dec - 02:29:14 10° WNW 02:38:51 58° SSW 02:48:11 10° SE visible
10 Dec - 04:36:33 10° WSW 04:45:26 40° S 04:54:06 10° ESE visible
10 Dec - 06:42:38 10° SW 06:51:57 59° SSE 07:01:05 10° ENE daylight
10 Dec - 08:47:52 10° WSW 08:56:50 54° NW 09:05:45 10° NNE daylight
10 Dec - 10:58:18 10° WNW 11:00:11 11° WNW 11:02:05 10° NW daylight
10 Dec - 22:04:01 10° NE 22:07:18 12° ENE 22:10:33 10° ENE visible
11 Dec - 00:01:16 10° NNW 00:10:51 55° NE 00:20:09 10° ESE visible
11 Dec - 02:06:11 10° WNW 02:15:52 60° SSW 02:25:15 10° SE visible
11 Dec - 04:13:29 10° WSW 04:22:25 40° S 04:31:06 10° ESE visible
11 Dec - 06:19:41 10° SW 06:28:59 57° SSE 06:38:05 10° ENE daylight
11 Dec - 08:24:54 10° WSW 08:33:58 58° NW 08:42:58 10° NNE daylight
11 Dec - 10:34:07 10° W 10:37:23 12° WNW 10:40:39 10° NW daylight
11 Dec - 21:42:44 10° NE 21:44:28 11° ENE 21:46:11 10° ENE visible
11 Dec - 23:38:27 10° NNW 23:47:58 52° NE 23:57:12 10° ESE visible
12 Dec - 01:43:08 10° WNW 01:52:53 63° SSW 02:02:21 10° SE visible
12 Dec - 03:50:26 10° WSW 03:59:23 40° S 04:08:05 10° ESE visible
12 Dec - 05:56:44 10° SW 06:06:01 55° SSE 06:15:04 10° E daylight
12 Dec - 08:01:56 10° WSW 08:11:06 62° NW 08:20:10 10° NE daylight
12 Dec - 10:10:25 10° W 10:14:35 14° WNW 10:18:45 10° NNW daylight
12 Dec - 23:15:39 10° NNW 23:25:04 49° NE 23:34:13 10° ESE visible
13 Dec - 01:20:06 10° WNW 01:29:55 65° SSW 01:39:26 10° SE visible
13 Dec - 03:27:21 10° WSW 03:36:21 41° S 03:45:06 10° ESE visible
13 Dec - 05:33:46 10° SW 05:43:02 53° SSE 05:52:04 10° E visible
13 Dec - 07:38:59 10° WSW 07:48:14 66° NW 07:57:21 10° NE daylight
13 Dec - 09:46:55 10° W 09:51:46 15° WNW 09:56:37 10° NNW daylight
13 Dec - 22:52:51 10° NNW 23:02:11 46° NE 23:11:15 10° ESE visible
14 Dec - 00:57:03 10° WNW 01:06:57 68° SSW 01:16:31 10° SE visible
14 Dec - 03:04:16 10° WSW 03:13:19 41° S 03:22:07 10° ESE visible
14 Dec - 05:10:49 10° SW 05:20:03 51° SSE 05:29:04 10° E visible
14 Dec - 07:16:02 10° WSW 07:25:21 70° NW 07:34:31 10° NE daylight
14 Dec - 09:23:32 10° W 09:28:58 17° NW 09:34:23 10° NNW daylight
14 Dec - 22:30:06 10° NNW 22:39:18 43° NE 22:48:15 10° ESE visible
15 Dec - 00:34:02 10° WNW 00:43:59 71° SSW 00:53:37 10° SE visible
15 Dec - 02:41:11 10° WSW 02:50:17 42° S 02:59:07 10° ESE visible
15 Dec - 04:47:50 10° SW 04:57:04 50° SSE 05:06:03 10° E visible
15 Dec - 06:53:05 10° WSW 07:02:28 74° NW 07:11:40 10° NE daylight
15 Dec - 09:00:13 10° W 09:06:09 19° NW 09:12:04 10° NNW daylight
15 Dec - 22:07:22 10° NNW 22:16:25 40° NE 22:25:15 10° ESE visible
16 Dec - 00:11:02 10° WNW 00:21:01 74° SSW 00:30:42 10° SE visible
16 Dec - 02:18:05 10° WSW 02:27:15 42° S 02:36:09 10° ESE visible
16 Dec - 04:24:51 10° SW 04:34:05 49° SSE 04:43:02 10° E visible
16 Dec - 06:30:08 10° WSW 06:39:34 78° NW 06:48:49 10° NE daylight
16 Dec - 08:36:59 10° W 08:43:19 21° NW 08:49:40 10° N daylight
16 Dec - 21:44:38 10° NNW 21:53:32 37° NE 22:02:15 10° ESE visible
16 Dec - 23:48:01 10° WNW 23:58:04 78° SSW 00:07:47 10° SE visible
17 Dec - 01:55:01 10° W 02:04:13 43° S 02:13:10 10° ESE visible
17 Dec - 04:01:51 10° WSW 04:11:05 47° SSE 04:20:01 10° E visible
17 Dec - 06:07:11 10° WSW 06:16:41 82° NW 06:25:57 10° NE daylight
17 Dec - 08:13:47 10° W 08:20:31 23° NW 08:27:14 10° N daylight
17 Dec - 21:21:56 10° N 21:30:40 35° NE 21:39:12 10° ESE visible
17 Dec - 23:25:02 10° WNW 23:35:06 81° SSW 23:44:52 10° SE visible
18 Dec - 01:31:55 10° W 01:41:12 44° S 01:50:12 10° ESE visible
18 Dec - 03:38:51 10° WSW 03:48:04 46° SSE 03:57:00 10° E visible
18 Dec - 05:44:14 10° SW 05:53:47 86° NW 06:03:04 10° NE daylight
18 Dec - 07:50:37 10° WSW 07:57:42 25° NW 08:04:44 10° N daylight
18 Dec - 20:59:16 10° N 21:07:48 32° NE 21:16:08 10° ESE visible
18 Dec - 23:02:02 10° NW 23:12:09 85° SW 23:21:57 10° SE visible
